Probability
0 0 0 0 0 0 0 0 0 0 0 0 0 0 0 0 0 0 0 0 0 3 6 6 10 10 3 3 0 0 0 0 0 3 0 0 0 0 0 0 0 0 0
0 0 0 0 0 0 0 0 0 0 0 0 0 0 0 0 0 0 0 0 0 0 3 3 6 3 3 3 3 0 0 0 0 3 3 0 0 0 0 0 0 0 0
0 0 0 0 0 0 0 0 0 0 0 0 0 0 0 0 0 0 0 0 0 0 0 3 3 3 3 3 3 0 0 0 0 0 0 0 0 0 0 0 0 0 0
0 0 0 0 0 0 0 0 0 0 0 0 0 0 0 0 0 0 0 0 0 0 0 0 0 0 0 0 0 0 0 0 0 0 0 0 0 0 0 0 0 0 0
0 0 0 0 0 0 0 0 0 0 0 0 0 0 0 0 0 0 0 0 0 0 0 0 0 0 0 0 0 0 0 0 0 0 0 0 0 0 0 0 0 0 0
0 0 0 0 0 0 0 0 0 0 0 0 0 0 0 0 0 0 0 0 0 0 0 0 0 0 0 0 0 0 0 0 0 0 0 0 0 0 0 0 0 0 0
0 0 0 0 0 0 0 0 0 0 0 0 0 0 0 0 0 0 0 0 0 0 0 0 0 0 0 0 0 0 0 0 0 0 0 0 0 0 0 0 0 0 0
0 0 0 0 0 0 0 0 0 0 0 0 0 0 0 0 0 0 0 0 0 0 0 0 0 0 0 0 0 0 0 0 0 0 0 0 0 0 0 0 0 0 0
0 0 0 0 0 0 0 0 0 0 0 0 0 0 0 0 0 0 0 0 0 0 0 0 0 0 0 0 0 0 0 0 0 0 0 0 0 0 0 0 0 0 0
0 0 0 0 0 0 0 0 0 0 0 0 0 0 0 0 0 0 0 0 0 0 0 0 0 0 0 0 0 0 0 0 0 0 0 0 0 0 0 0 0 0 0
0 0 0 0 0 0 0 0 0 0 0 0 0 0 0 0 0 0 0 0 0 0 0 0 0 0 0 0 0 0 0 0 0 0 0 0 0 0 0 0 0 0 0
0 0 0 0 0 0 0 0 0 0 0 0 0 0 0 0 0 0 0 0 0 0 0 0 0 0 0 0 0 0 0 0 0 0 0 0 0 0 0 0 0 0 0
0 0 0 0 0 0 0 0 0 0 0 0 0 0 0 0 0 0 0 0 0 0 0 0 0 0 0 0 0 0 0 0 0 0 0 0 0 0 0 0 0 0 0
0 0 0 0 0 0 0 0 0 0 0 0 0 0 0 0 0 0 0 0 0 0 0 0 0 0 0 0 0 0 0 0 0 0 0 0 0 0 0 0 0 0 0
0 0 0 0 0 0 0 0 0 0 0 0 0 0 0 0 0 0 0 0 0 0 0 0 0 0 0 0 0 0 0 0 0 0 0 0 0 0 0 0 0 0 0
0 0 0 0 0 0 0 0 0 0 0 0 0 0 0 0 0 0 0 0 0 0 0 0 0 0 0 0 0 0 0 0 0 0 0 0 0 0 0 0 0 0 0
0 0 0 0 0 0 0 0 0 0 0 0 0 0 0 0 0 0 0 0 0 0 0 0 0 0 0 0 0 0 0 0 0 0 0 0 0 0 0 0 0 0 0
0 0 0 0 0 0 0 0 0 0 0 0 0 0 0 0 0 0 0 0 0 0 0 0 0 0 0 0 0 0 0 0 0 0 0 0 0 0 0 0 0 0 0
0 0 0 0 0 0 0 0 0 0 0 0 0 0 0 0 0 0 0 0 0 0 0 0 0 0 0 0 0 0 0 0 0 0 0 0 0 0 0 0 0 0 0
0 0 0 0 0 0 0 0 0 0 0 0 0 0 0 0 0 0 0 0 0 0 0 0 0 0 0 0 0 0 0 0 0 0 0 0 0 0 0 0 0 0 0
0 0 0 0 0 0 0 0 0 0 0 0 0 0 0 0 0 0 0 0 0 0 0 0 0 0 0 0 0 0 0 0 0 0 0 0 0 0 0 0 0 0 0
0 0 0 0 0 0 0 0 0 0 0 0 0 0 0 0 0 0 0 0 0 0 0 0 0 0 0 0 0 0 0 0 0 0 0 0 0 0 0 0 0 0 0
0 0 0 0 0 0 0 0 0 0 0 0 0 0 0 0 0 0 0 0 0 0 0 0 0 0 0 0 0 0 0 0 0 0 0 0 0 0 0 0 0 0 0
0 0 0 0 0 0 0 0 0 0 0 0 0 0 0 0 0 0 0 0 0 0 0 0 0 0 0 0 0 0 0 0 0 0 0 0 0 0 0 0 0 0 0
0 0 0 0 0 0 0 0 0 0 0 0 0 0 0 0 0 0 0 0 0 0 0 0 0 0 0 0 0 0 0 0 0 0 0 0 0 0 0 0 0 0 0
0 0 0 0 0 0 0 0 0 0 0 0 0 0 0 0 0 0 0 0 0 0 0 0 0 0 0 0 0 0 0 0 0 0 0 0 0 0 0 0 0 0 0
Height
5814 5817 5820 5822 5825 5827 5829 5831 5833 5835 5837 5838 5840 5841 5842 5843 5844 5845 5846 5847 5847 5848 5848 5848 5848 5848 5848 5848 5848 5847 5847 5846 5845 5845 5844 5843 5842 5841 5840 5839 5838 5837 5835
5808 5811 5814 5817 5819 5821 5824 5826 5828 5830 5832 5834 5835 5837 5838 5839 5840 5841 5842 5843 5844 5844 5844 5844 5845 5845 5845 5845 5844 5844 5844 5843 5842 5842 5841 5840 5839 5838 5837 5836 5835 5833 5832
5801 5805 5808 5811 5813 5816 5818 5821 5823 5825 5827 5829 5831 5832 5834 5835 5836 5837 5838 5839 5840 5840 5841 5841 5841 5841 5841 5841 5841 5841 5840 5840 5839 5838 5838 5837 5836 5835 5834 5833 5831 5830 5828
5794 5798 5801 5804 5807 5810 5812 5815 5817 5820 5822 5824 5826 5828 5829 5831 5832 5833 5834 5835 5835 5836 5837 5837 5837 5837 5837 5837 5837 5837 5837 5836 5835 5835 5834 5834 5833 5832 5830 5829 5827 5826 5825
5787 5791 5794 5797 5800 5803 5806 5809 5812 5814 5817 5819 5821 5823 5824 5826 5827 5828 5829 5830 5831 5831 5832 5833 5833 5833 5833 5833 5833 5833 5833 5832 5832 5831 5830 5830 5829 5828 5826 5825 5823 5822 5821
5779 5783 5787 5791 5794 5797 5800 5803 5806 5808 5811 5813 5815 5817 5819 5820 5822 5822 5824 5825 5825 5826 5827 5828 5828 5829 5829 5829 5829 5828 5828 5828 5827 5827 5826 5826 5825 5823 5822 5821 5819 5817 5816
5771 5775 5780 5784 5787 5790 5793 5796 5799 5802 5804 5807 5809 5811 5813 5815 5816 5817 5818 5819 5820 5821 5822 5822 5823 5824 5824 5824 5824 5824 5823 5823 5823 5822 5822 5821 5820 5819 5817 5816 5814 5813 5811
5762 5767 5771 5776 5779 5783 5786 5789 5792 5795 5798 5800 5803 5805 5807 5809 5810 5811 5813 5813 5814 5815 5816 5817 5818 5818 5818 5818 5818 5818 5818 5818 5818 5817 5817 5816 5815 5814 5813 5811 5809 5808 5806
5753 5758 5763 5767 5771 5775 5778 5782 5785 5788 5791 5793 5796 5798 5800 5802 5804 5805 5806 5807 5808 5809 5810 5811 5812 5812 5813 5813 5813 5813 5813 5813 5812 5812 5811 5810 5810 5809 5807 5806 5804 5803 5801
5744 5749 5753 5758 5762 5766 5770 5773 5777 5780 5783 5786 5788 5790 5793 5795 5797 5799 5800 5801 5802 5803 5804 5805 5806 5806 5806 5807 5807 5807 5807 5807 5807 5806 5805 5805 5804 5803 5801 5800 5798 5797 5795
5734 5739 5744 5748 5753 5757 5761 5765 5768 5772 5775 5778 5780 5782 5785 5787 5789 5791 5793 5795 5796 5796 5797 5798 5799 5800 5800 5800 5800 5800 5800 5800 5800 5799 5799 5798 5797 5796 5795 5793 5792 5790 5788
5724 5729 5734 5739 5743 5747 5751 5755 5759 5763 5766 5769 5771 5774 5776 5779 5781 5783 5784 5786 5788 5789 5790 5791 5791 5792 5792 5793 5793 5793 5793 5793 5793 5792 5792 5791 5790 5789 5788 5786 5785 5783 5781
5713 5719 5724 5728 5733 5737 5741 5745 5749 5753 5756 5759 5762 5765 5768 5770 5772 5774 5775 5777 5779 5780 5782 5783 5783 5784 5785 5785 5785 5785 5785 5785 5785 5785 5784 5784 5783 5782 5780 5779 5777 5775 5774
5703 5708 5712 5717 5722 5726 5731 5734 5738 5742 5746 5750 5753 5755 5758 5760 5763 5765 5767 5768 5770 5771 5773 5774 5775 5775 5776 5777 5777 5777 5777 5777 5777 5776 5776 5775 5774 5773 5772 5771 5769 5767 5765
5690 5696 5701 5706 5711 5715 5720 5724 5728 5732 5735 5739 5743 5746 5749 5751 5753 5755 5757 5759 5761 5762 5764 5765 5766 5766 5767 5768 5768 5768 5768 5768 5768 5768 5767 5766 5765 5764 5763 5761 5759 5757 5755
5678 5683 5689 5694 5699 5704 5708 5713 5717 5721 5725 5729 5732 5736 5739 5741 5744 5746 5748 5749 5751 5753 5754 5756 5756 5757 5758 5758 5759 5759 5759 5759 5759 5758 5758 5757 5756 5755 5753 5751 5749 5747 5745
5666 5671 5676 5682 5687 5692 5697 5701 5706 5710 5714 5718 5721 5725 5728 5731 5734 5736 5738 5739 5741 5743 5744 5746 5746 5747 5748 5749 5749 5749 5749 5749 5749 5748 5748 5747 5746 5744 5743 5741 5739 5737 5734
5653 5658 5664 5669 5675 5680 5685 5690 5694 5699 5703 5707 5710 5714 5717 5720 5723 5725 5727 5729 5731 5733 5734 5736 5737 5737 5738 5739 5739 5739 5739 5739 5739 5738 5737 5736 5735 5734 5732 5730 5728 5725 5723
5640 5646 5651 5656 5662 5668 5673 5678 5682 5687 5692 5696 5699 5703 5706 5709 5712 5714 5716 5719 5721 5722 5724 5725 5726 5727 5728 5728 5729 5729 5729 5728 5728 5727 5726 5726 5724 5723 5721 5719 5716 5714 5711
5627 5633 5638 5644 5650 5655 5660 5665 5671 5675 5680 5684 5688 5691 5695 5698 5701 5703 5706 5708 5709 5711 5713 5714 5716 5717 5717 5717 5718 5718 5718 5718 5717 5716 5715 5714 5713 5711 5709 5707 5704 5701 5698
5614 5620 5626 5632 5637 5642 5648 5653 5658 5663 5668 5672 5676 5680 5683 5686 5689 5692 5694 5697 5698 5700 5702 5703 5705 5706 5706 5707 5707 5707 5707 5707 5706 5705 5704 5703 5701 5699 5697 5694 5691 5688 5685
5601 5607 5612 5618 5624 5630 5636 5641 5646 5651 5655 5660 5664 5667 5671 5674 5677 5680 5683 5685 5687 5689 5691 5692 5694 5695 5696 5696 5696 5696 5695 5695 5695 5694 5692 5690 5688 5686 5684 5681 5679 5676 5673
5588 5594 5599 5605 5612 5618 5623 5628 5633 5638 5643 5647 5651 5655 5659 5662 5665 5668 5671 5674 5676 5678 5680 5681 5682 5683 5684 5685 5684 5684 5683 5683 5683 5681 5679 5678 5676 5673 5671 5668 5665 5663 5660
5576 5581 5587 5593 5599 5604 5609 5614 5619 5624 5629 5634 5638 5642 5646 5649 5653 5656 5659 5662 5664 5666 5668 5670 5671 5672 5672 5672 5672 5672 5671 5670 5670 5668 5666 5665 5663 5661 5658 5655 5653 5650 5647
5564 5569 5574 5580 5586 5591 5596 5601 5605 5610 5616 5620 5625 5629 5633 5637 5640 5643 5647 5650 5652 5654 5655 5657 5658 5659 5659 5660 5659 5659 5658 5657 5657 5656 5653 5652 5650 5648 5646 5643 5640 5637 5634
5551 5557 5562 5567 5573 5578 5583 5588 5593 5598 5603 5608 5612 5616 5621 5624 5627 5630 5633 5637 5639 5642 5643 5645 5646 5646 5647 5646 5646 5646 5645 5644 5643 5642 5640 5638 5637 5634 5633 5630 5627 5624 5621
Wind_Speed
28 27 26 25 24 24 23 22 21 21 20 19 19 18 17 16 16 16 15 14 14 14 14 13 14 14 14 14 14 14 14 14 14 14 14 14 14 15 15 16 16 17 17
30 29 27 26 25 25 24 23 23 22 21 20 19 19 18 17 17 17 16 16 16 16 15 15 15 15 15 15 15 15 15 15 15 15 15 15 15 15 16 16 17 17 18
32 31 29 29 28 27 26 25 24 24 23 22 21 20 19 19 19 18 18 17 17 17 17 17 16 16 16 16 16 16 16 15 15 16 16 16 16 17 17 18 18 18 18
34 33 31 30 30 29 28 26 26 25 24 24 22 21 21 20 20 20 20 19 19 19 18 18 17 17 17 17 17 17 17 16 16 16 16 16 17 18 18 18 18 18 19
35 34 33 31 31 31 29 28 27 27 26 25 24 23 23 22 22 22 21 21 20 20 20 19 19 18 18 18 18 18 18 18 18 18 18 18 18 19 19 20 20 19 20
37 36 35 33 33 32 31 30 29 28 27 26 26 25 24 24 23 24 23 22 22 22 21 20 20 20 19 19 19 19 19 20 19 20 19 19 20 20 20 21 21 21 21
39 38 37 35 34 34 33 32 31 30 29 28 27 27 26 25 25 24 24 24 24 24 23 22 21 21 21 20 20 20 20 20 21 21 21 21 20 21 21 22 22 22 22
41 40 39 37 36 35 35 34 33 32 30 30 29 28 27 27 26 26 25 25 24 24 24 23 23 22 22 22 21 21 21 22 22 21 21 22 22 22 22 23 23 23 24
42 42 41 40 39 38 37 36 35 34 33 32 31 30 30 29 27 27 26 26 25 25 25 24 25 25 25 24 23 23 23 22 23 23 23 23 23 23 24 24 25 25 26
42 42 42 42 42 40 39 39 37 36 35 34 33 32 31 30 29 29 28 28 27 26 26 26 26 26 26 26 25 25 25 24 24 25 25 26 26 26 26 26 27 27 28
46 44 44 45 43 42 42 41 40 38 37 36 35 34 33 32 32 31 30 30 29 28 28 28 28 28 27 27 27 27 27 26 27 27 27 27 28 28 28 29 29 29 29
48 47 46 46 45 44 43 43 42 40 39 37 36 36 35 34 34 33 33 32 31 31 31 30 30 29 29 29 29 29 28 28 29 29 29 29 29 30 30 31 31 32 32
50 49 48 48 46 45 44 44 43 42 41 40 38 37 36 36 36 35 34 34 34 33 33 32 32 31 31 31 31 31 30 30 31 31 31 31 31 32 32 33 34 34 34
50 51 50 49 48 47 46 45 44 43 43 42 41 39 38 37 37 36 35 35 35 34 34 33 33 34 33 33 33 33 33 33 33 33 33 34 34 34 34 35 36 36 37
51 52 52 51 50 49 48 47 46 46 44 43 42 41 40 39 39 38 38 37 36 35 35 35 35 35 35 34 34 35 35 35 35 36 36 35 35 36 37 37 38 38 39
52 51 53 52 52 51 49 48 47 46 45 44 44 43 42 41 41 40 39 38 37 37 37 37 37 37 37 36 36 36 36 37 37 37 37 37 38 38 39 39 40 40 41
53 52 52 53 53 52 51 50 49 47 46 45 44 44 44 44 43 42 41 40 39 39 38 38 38 38 38 38 37 38 38 38 38 39 39 39 39 40 40 41 42 42 42
54 53 53 53 53 52 52 52 50 49 47 46 45 45 44 44 43 43 43 41 40 40 39 38 39 39 39 39 39 39 39 39 40 40 40 41 41 42 42 43 43 43 44
56 54 54 54 54 54 53 51 50 49 47 47 47 46 45 45 44 44 44 43 42 40 40 39 39 39 40 40 40 40 41 42 42 42 43 43 43 43 44 44 45 45 46
57 56 54 54 53 54 53 52 51 49 48 47 47 47 46 46 45 45 44 44 43 42 41 41 40 40 41 42 42 42 42 43 43 44 44 45 45 45 45 46 46 47 47
57 56 55 54 54 54 54 54 53 51 50 49 48 48 48 47 46 46 45 45 44 43 42 41 41 41 42 42 42 42 43 44 44 45 46 46 46 47 47 47 48 47 47
54 56 56 56 55 54 54 55 54 53 52 51 50 50 49 48 48 47 45 45 45 44 43 43 42 42 42 42 43 43 44 45 45 46 46 47 47 48 48 49 49 48 47
52 53 55 56 56 54 53 54 54 53 53 52 52 51 51 50 49 48 47 47 46 45 45 44 44 44 44 44 44 45 45 45 46 46 47 47 48 48 49 49 49 48 48
51 52 53 55 56 55 54 54 54 54 54 53 52 52 51 50 49 49 48 48 47 46 46 46 46 45 45 46 47 46 46 46 46 46 48 48 48 48 48 49 49 48 48
51 52 53 54 54 53 53 53 53 53 53 53 53 52 51 50 49 49 49 49 48 48 48 48 48 47 47 47 47 47 47 48 47 47 48 49 48 48 49 49 49 49 49
51 51 52 53 53 52 51 52 51 51 52 52 53 53 52 51 50 50 50 49 49 49 49 49 48 48 48 48 48 48 48 49 49 49 49 50 50 50 49 49 50 50 50
Wind_Direction
235 236 239 241 241 241 242 242 242 243 244 247 249 253 257 258 258 259 262 264 265 268 272 276 278 278 281 284 287 291 294 296 297 299 300 302 305 307 308 309 309 308 308
234 236 237 239 240 241 241 241 241 242 243 245 248 252 255 257 257 259 261 263 264 267 270 273 276 277 279 282 285 287 291 293 296 297 298 300 303 306 306 307 308 307 306
234 236 237 237 239 240 240 241 241 242 242 244 248 250 252 254 254 257 261 263 265 267 269 270 273 276 277 279 281 282 286 290 291 294 296 299 301 304 305 306 306 306 307
234 235 236 237 238 239 240 241 240 242 243 245 248 250 251 253 254 256 259 262 264 266 267 269 271 273 276 277 279 281 284 286 288 291 294 297 299 301 304 306 304 303 304
234 235 236 237 238 239 240 240 240 242 244 246 248 250 251 253 254 256 259 262 264 265 265 267 269 272 275 277 277 278 280 283 286 289 292 295 297 298 299 302 302 301 302
233 234 236 238 238 239 239 240 240 241 244 247 248 249 251 254 255 257 259 262 264 264 265 266 268 271 274 277 277 278 279 281 284 287 290 292 296 297 298 300 301 300 301
233 234 235 237 237 238 239 240 241 242 244 246 248 250 251 254 256 257 260 262 263 263 263 264 266 269 271 274 276 277 279 281 283 285 288 291 293 295 297 300 300 299 300
233 234 234 235 236 238 239 241 242 243 244 245 248 250 251 254 256 257 259 261 262 262 262 262 264 267 271 272 275 277 279 280 282 284 287 289 291 293 295 297 298 299 300
234 234 235 235 237 238 239 241 243 244 245 246 248 250 252 254 256 256 257 259 261 261 261 262 264 267 270 272 274 276 277 279 280 283 284 286 288 291 294 296 298 299 298
234 234 235 235 236 238 239 241 242 244 245 247 249 250 251 253 254 256 256 258 259 259 261 263 265 267 269 269 272 275 275 277 279 281 282 284 286 288 291 293 295 296 298
234 235 236 236 237 238 240 241 241 243 245 247 249 250 251 252 254 256 257 258 258 259 261 263 265 266 268 269 271 274 275 276 278 280 281 283 285 287 289 291 294 295 296
234 235 235 236 238 239 240 241 242 243 245 246 248 250 251 252 254 256 258 257 258 259 261 263 264 266 267 268 271 273 274 276 278 280 282 284 286 287 289 290 292 294 295
235 236 236 237 239 239 240 241 241 242 244 246 247 248 250 252 253 256 257 258 259 259 260 263 264 265 266 268 270 271 273 275 277 280 282 284 285 286 288 290 291 292 294
236 237 237 238 239 241 240 241 241 242 243 244 246 247 249 251 252 254 256 258 259 260 261 264 264 264 266 267 269 271 273 275 277 279 281 282 284 285 287 289 291 291 293
236 237 236 238 239 240 240 241 241 242 242 244 245 247 249 251 252 255 257 258 259 261 262 264 265 265 266 267 269 271 273 275 277 278 279 281 283 285 287 288 290 291 292
237 238 237 238 239 240 240 241 241 242 242 244 246 246 249 251 253 254 255 258 260 261 263 264 266 267 267 268 269 272 274 275 277 279 280 281 283 285 286 288 290 290 291
238 239 239 239 239 239 240 241 242 243 243 244 246 247 249 251 253 253 256 258 260 262 263 265 266 267 268 269 271 272 274 275 277 278 280 282 283 285 286 287 288 289 290
238 239 239 238 239 240 240 241 242 243 244 245 246 248 249 251 253 255 256 258 260 261 263 265 266 267 268 269 271 272 274 275 276 278 280 281 283 285 286 287 287 289 290
237 238 239 240 239 240 240 241 242 242 244 245 247 248 249 250 253 254 256 258 259 261 263 265 266 266 267 269 271 273 274 276 277 278 280 282 283 284 285 286 287 289 290
237 238 240 240 239 239 239 240 241 242 244 246 247 248 249 250 252 254 256 257 259 261 263 264 266 267 268 269 271 273 274 275 277 279 280 282 283 284 285 286 288 289 290
238 237 238 238 238 238 239 240 242 244 245 246 247 248 249 251 252 254 256 258 259 261 262 264 266 267 269 270 271 272 274 275 277 279 280 281 283 284 285 287 288 289 289
239 239 238 238 239 240 241 242 243 245 246 247 247 248 250 251 252 254 255 257 259 261 262 264 266 267 269 270 271 272 274 275 277 279 281 282 283 284 285 286 287 287 288
239 239 239 239 240 241 242 243 244 245 247 248 248 248 249 250 252 253 255 256 258 261 262 264 266 268 269 270 272 273 275 276 278 280 281 282 283 284 285 286 286 286 287
239 239 240 240 241 242 243 244 244 245 246 246 247 248 249 250 251 253 254 256 258 261 262 264 266 268 270 271 273 274 275 277 279 280 281 283 284 285 286 285 285 286 287
240 240 240 241 241 242 242 243 244 244 244 245 246 247 249 250 251 253 254 256 258 260 262 264 266 269 271 272 274 275 277 279 280 280 282 283 284 284 284 284 284 285 286
241 241 241 242 242 242 241 241 242 242 243 244 245 247 248 249 251 252 254 256 257 259 261 264 266 268 270 272 274 276 277 279 280 281 282 283 284 284 284 284 285 285 285